owner,sensor,date,latitude,longitude,vertical_datum,mass_concentration_of_oxygen_in_sea_water,qcFlag 
DISL,ioos:station:DISL:DISL:1,2013-01-01T06:30:00Z,30.2513,-88.0778,2.130857,0.0,1114422 
DISL,ioos:station:DISL:DISL:1,2013-01-01T07:00:00Z,30.2513,-88.0778,2.1311617,0.0,1114422 
DISL,ioos:station:DISL:DISL:1,2013-01-01T07:30:00Z,30.2513,-88.0778,2.1366482,0.0,1114422 
DISL,ioos:station:DISL:DISL:1,2013-01-01T08:00:00Z,30.2513,-88.0778,2.1131785,0.0,1114422 
DISL,ioos:station:DISL:DISL:1,2013-01-01T08:30:00Z,30.2513,-88.0778,2.0756881,0.0,1114422 
DISL,ioos:station:DISL:DISL:1,2013-01-01T09:00:00Z,30.2513,-88.0778,2.0537424,0.0,1114422 
DISL,ioos:station:DISL:DISL:1,2013-01-01T09:30:00Z,30.2513,-88.0778,2.036064,0.0,1114422 
DISL,ioos:station:DISL:DISL:1,2013-01-01T10:00:00Z,30.2513,-88.0778,2.0302727,0.0,1114422 
DISL,ioos:station:DISL:DISL:1,2013-01-01T10:30:00Z,30.2513,-88.0778,1.9839432,0.0,1114422 
DISL,ioos:station:DISL:DISL:1,2013-01-01T11:00:00Z,30.2513,-88.0778,1.9665697,0.0,1114422 
DISL,ioos:station:DISL:DISL:1,2013-01-01T11:30:00Z,30.2513,-88.0778,1.9641311,0.0,1114422 
DISL,ioos:station:DISL:DISL:1,2013-01-01T12:00:00Z,30.2513,-88.0778,1.9568161,0.0,1114422 
DISL,ioos:station:DISL:DISL:1,2013-01-01T12:30:00Z,30.2513,-88.0778,1.8888457,0.0,1114422 
DISL,ioos:station:DISL:DISL:1,2013-01-01T13:00:00Z,30.2513,-88.0778,1.9199351,0.0,1114422 
DISL,ioos:station:DISL:DISL:1,2013-01-01T13:30:00Z,30.2513,-88.0778,1.9101816,0.0,1114422 
DISL,ioos:station:DISL:DISL:1,2013-01-01T14:00:00Z,30.2513,-88.0778,1.9019519,0.0,1114422 
DISL,ioos:station:DISL:DISL:1,2013-01-01T14:30:00Z,30.2513,-88.0778,1.8681192,0.0,1114422 
DISL,ioos:station:DISL:DISL:1,2013-01-01T15:00:00Z,30.2513,-88.0778,1.8681192,0.0,1114422 
DISL,ioos:station:DISL:DISL:1,2013-01-01T15:30:00Z,30.2513,-88.0778,1.8781776,0.0,1114422 
DISL,ioos:station:DISL:DISL:1,2013-01-01T16:00:00Z,30.2513,-88.0778,1.8690336,0.0,1114422 
DISL,ioos:station:DISL:DISL:1,2013-01-01T16:30:00Z,30.2513,-88.0778,1.8702528,0.0,1114422 
DISL,ioos:station:DISL:DISL:1,2013-01-01T17:00:00Z,30.2513,-88.0778,1.872996,0.0,1114422 
DISL,ioos:station:DISL:DISL:1,2013-01-01T17:30:00Z,30.2513,-88.0778,1.8848833,0.0,1114422 
DISL,ioos:station:DISL:DISL:1,2013-01-01T18:00:00Z,30.2513,-88.0778,1.8510504,0.0,1114422 
DISL,ioos:station:DISL:DISL:1,2013-01-01T18:30:00Z,30.2513,-88.0778,1.8925033,0.0,1114422 
DISL,ioos:station:DISL:DISL:1,2013-01-01T19:00:00Z,30.2513,-88.0778,1.9107913,0.0,1114422 
DISL,ioos:station:DISL:DISL:1,2013-01-01T19:30:00Z,30.2513,-88.0778,1.9275552,0.0,1114422 
DISL,ioos:station:DISL:DISL:1,2013-01-01T20:00:00Z,30.2513,-88.0778,1.9348705,0.0,1114422 
DISL,ioos:station:DISL:DISL:1,2013-01-01T20:30:00Z,30.2513,-88.0778,1.9562064,0.0,1114422 
DISL,ioos:station:DISL:DISL:1,2013-01-01T21:00:00Z,30.2513,-88.0778,1.9641311,0.0,1114422 
DISL,ioos:station:DISL:DISL:1,2013-01-01T21:30:00Z,30.2513,-88.0778,1.9833336,0.0,1114422 
DISL,ioos:station:DISL:DISL:1,2013-01-01T22:00:00Z,30.2513,-88.0778,1.9827241,0.0,1114422 
DISL,ioos:station:DISL:DISL:1,2013-01-01T22:30:00Z,30.2513,-88.0778,2.0095465,0.0,1114422 
DISL,ioos:station:DISL:DISL:1,2013-01-01T23:00:00Z,30.2513,-88.0778,2.0290537,0.0,1114422 
DISL,ioos:station:DISL:DISL:1,2013-01-01T23:30:00Z,30.2513,-88.0778,2.0409408,0.0,1114422 
DISL,ioos:station:DISL:DISL:1,2013-01-02T00:00:00Z,30.2513,-88.0778,2.071116,0.0,1114422 
DISL,ioos:station:DISL:DISL:1,2013-01-02T00:30:00Z,30.2513,-88.0778,2.0427697,0.0,1114422 
DISL,ioos:station:DISL:DISL:1,2013-01-02T01:00:00Z,30.2513,-88.0778,2.054047,0.0,1114422 
DISL,ioos:station:DISL:DISL:1,2013-01-02T01:30:00Z,30.2513,-88.0778,2.0769072,0.0,1114422 
DISL,ioos:station:DISL:DISL:1,2013-01-02T02:00:00Z,30.2513,-88.0778,2.0869656,0.0,1114422 
DISL,ioos:station:DISL:DISL:1,2013-01-02T02:30:00Z,30.2513,-88.0778,2.1028154,0.0,1114422 
DISL,ioos:station:DISL:DISL:1,2013-01-02T03:00:00Z,30.2513,-88.0778,2.092757,0.0,1114422 
DISL,ioos:station:DISL:DISL:1,2013-01-02T03:30:00Z,30.2513,-88.0778,2.1104352,0.0,1114422 
DISL,ioos:station:DISL:DISL:1,2013-01-02T04:00:00Z,30.2513,-88.0778,2.1131785,0.0,1114422 
DISL,ioos:station:DISL:DISL:1,2013-01-02T04:30:00Z,30.2513,-88.0778,2.118055,0.0,1114422 
DISL,ioos:station:DISL:DISL:1,2013-01-02T05:00:00Z,30.2513,-88.0778,2.1253705,0.0,1114422 
DISL,ioos:station:DISL:DISL:1,2013-01-02T05:30:00Z,30.2513,-88.0778,2.1317713,0.0,1114422 
DISL,ioos:station:DISL:DISL:1,2013-01-02T06:00:00Z,30.2513,-88.0778,2.0631912,0.0,1114422 
DISL,ioos:station:DISL:DISL:1,2013-01-02T06:30:00Z,30.2513,-88.0778,2.0820887,0.0,1114422 
DISL,ioos:station:DISL:DISL:1,2013-01-02T07:00:00Z,30.2513,-88.0778,2.0860512,0.0,1114422 
DISL,ioos:station:DISL:DISL:1,2013-01-02T07:30:00Z,30.2513,-88.0778,2.054047,0.0,1114422 
DISL,ioos:station:DISL:DISL:1,2013-01-02T08:00:00Z,30.2513,-88.0778,1.9946113,0.0,1114422 
DISL,ioos:station:DISL:DISL:1,2013-01-02T08:30:00Z,30.2513,-88.0778,2.0150328,0.0,1114422 
DISL,ioos:station:DISL:DISL:1,2013-01-02T09:00:00Z,30.2513,-88.0778,1.9778472,0.0,1114422 
DISL,ioos:station:DISL:DISL:1,2013-01-02T09:30:00Z,30.2513,-88.0778,2.033321,0.0,1114422 
DISL,ioos:station:DISL:DISL:1,2013-01-02T10:00:00Z,30.2513,-88.0778,1.9424905,0.0,1114422 
DISL,ioos:station:DISL:DISL:1,2013-01-02T10:30:00Z,30.2513,-88.0778,1.879092,0.0,1114422 
DISL,ioos:station:DISL:DISL:1,2013-01-02T11:00:00Z,30.2513,-88.0778,1.8848833,0.0,1114422 
DISL,ioos:station:DISL:DISL:1,2013-01-02T11:30:00Z,30.2513,-88.0778,1.8842736,0.0,1114422 
DISL,ioos:station:DISL:DISL:1,2013-01-02T12:00:00Z,30.2513,-88.0778,1.8431256,0.0,1114422 
DISL,ioos:station:DISL:DISL:1,2013-01-02T12:30:00Z,30.2513,-88.0778,1.9022568,0.0,1114422 
DISL,ioos:station:DISL:DISL:1,2013-01-02T13:00:00Z,30.2513,-88.0778,1.7748504,0.0,1114422 
DISL,ioos:station:DISL:DISL:1,2013-01-02T13:30:00Z,30.2513,-88.0778,1.85166,0.0,1114422 
DISL,ioos:station:DISL:DISL:1,2013-01-02T14:00:00Z,30.2513,-88.0778,1.8336768,0.0,1114422 
DISL,ioos:station:DISL:DISL:1,2013-01-02T14:30:00Z,30.2513,-88.0778,1.9053048,0.0,1114422 
DISL,ioos:station:DISL:DISL:1,2013-01-02T15:00:00Z,30.2513,-88.0778,1.8412968,0.0,1114422 
DISL,ioos:station:DISL:DISL:1,2013-01-02T15:30:00Z,30.2513,-88.0778,1.8159984,0.0,1114422 
DISL,ioos:station:DISL:DISL:1,2013-01-02T16:00:00Z,30.2513,-88.0778,1.7995392,0.0,1114422 
DISL,ioos:station:DISL:DISL:1,2013-01-02T16:30:00Z,30.2513,-88.0778,1.7596103,0.0,1114422 
DISL,ioos:station:DISL:DISL:1,2013-01-02T17:00:00Z,30.2513,-88.0778,1.8382488,0.0,1114422 
DISL,ioos:station:DISL:DISL:1,2013-01-02T17:30:00Z,30.2513,-88.0778,1.813865,10.62,1111122 
DISL,ioos:station:DISL:DISL:1,2013-01-02T18:00:00Z,30.2513,-88.0778,1.8248376,10.57,1111122 
DISL,ioos:station:DISL:DISL:1,2013-01-02T18:30:00Z,30.2513,-88.0778,1.827276,10.64,1111122 
DISL,ioos:station:DISL:DISL:1,2013-01-02T19:00:00Z,30.2513,-88.0778,1.8504409,10.73,1111122 
DISL,ioos:station:DISL:DISL:1,2013-01-02T19:30:00Z,30.2513,-88.0778,1.8720816,10.59,1111122 
DISL,ioos:station:DISL:DISL:1,2013-01-02T20:00:00Z,30.2513,-88.0778,1.8687289,10.58,1111122 
DISL,ioos:station:DISL:DISL:1,2013-01-02T20:30:00Z,30.2513,-88.0778,1.8848833,10.59,1111122 
DISL,ioos:station:DISL:DISL:1,2013-01-02T21:00:00Z,30.2513,-88.0778,1.89738,10.64,1111122 
DISL,ioos:station:DISL:DISL:1,2013-01-02T21:30:00Z,30.2513,-88.0778,1.9190208,10.7,1111122 
DISL,ioos:station:DISL:DISL:1,2013-01-02T22:00:00Z,30.2513,-88.0778,1.9565113,10.7,1111122 
DISL,ioos:station:DISL:DISL:1,2013-01-02T22:30:00Z,30.2513,-88.0778,1.9357848,10.78,1111122 
DISL,ioos:station:DISL:DISL:1,2013-01-02T23:00:00Z,30.2513,-88.0778,1.9312128,10.74,1111122 
DISL,ioos:station:DISL:DISL:1,2013-01-02T23:30:00Z,30.2513,-88.0778,1.9488913,10.82,1111122 
DISL,ioos:station:DISL:DISL:1,2013-01-03T00:00:00Z,30.2513,-88.0778,1.9568161,10.9,1111122 
DISL,ioos:station:DISL:DISL:1,2013-01-03T00:30:00Z,30.2513,-88.0778,1.9382232,10.86,1111122 
DISL,ioos:station:DISL:DISL:1,2013-01-03T01:00:00Z,30.2513,-88.0778,1.9784569,10.77,1111122 
DISL,ioos:station:DISL:DISL:1,2013-01-03T01:30:00Z,30.2513,-88.0778,1.9610832,10.54,1111122 
DISL,ioos:station:DISL:DISL:1,2013-01-03T02:00:00Z,30.2513,-88.0778,1.9915632,10.5,1111122 
DISL,ioos:station:DISL:DISL:1,2013-01-03T02:30:00Z,30.2513,-88.0778,2.0034504,10.54,1111122 
DISL,ioos:station:DISL:DISL:1,2013-01-03T03:00:00Z,30.2513,-88.0778,2.00406,10.52,1111122 
DISL,ioos:station:DISL:DISL:1,2013-01-03T03:30:00Z,30.2513,-88.0778,1.9863816,10.52,1111122 
DISL,ioos:station:DISL:DISL:1,2013-01-03T04:00:00Z,30.2513,-88.0778,2.0577047,10.53,1111122 
DISL,ioos:station:DISL:DISL:1,2013-01-03T04:30:00Z,30.2513,-88.0778,1.9083529,10.45,1111122 
DISL,ioos:station:DISL:DISL:1,2013-01-03T05:00:00Z,30.2513,-88.0778,2.0769072,10.46,1111122 
DISL,ioos:station:DISL:DISL:1,2013-01-03T05:30:00Z,30.2513,-88.0778,2.0016215,10.41,1111122 
DISL,ioos:station:DISL:DISL:1,2013-01-03T06:00:00Z,30.2513,-88.0778,2.1022055,10.38,1111122 
DISL,ioos:station:DISL:DISL:1,2013-01-03T06:30:00Z,30.2513,-88.0778,1.894332,10.35,1111122 
DISL,ioos:station:DISL:DISL:1,2013-01-03T07:00:00Z,30.2513,-88.0778,1.959864,10.34,1111122 
DISL,ioos:station:DISL:DISL:1,2013-01-03T07:30:00Z,30.2513,-88.0778,1.9162776,10.33,1111122 
DISL,ioos:station:DISL:DISL:1,2013-01-03T08:00:00Z,30.2513,-88.0778,1.9373088,10.33,1111122 
DISL,ioos:station:DISL:DISL:1,2013-01-03T08:30:00Z,30.2513,-88.0778,1.837944,10.35,1111122 
DISL,ioos:station:DISL:DISL:1,2013-01-03T09:00:00Z,30.2513,-88.0778,1.865376,10.37,1111122 
DISL,ioos:station:DISL:DISL:1,2013-01-03T09:30:00Z,30.2513,-88.0778,1.834896,10.37,1111122 
DISL,ioos:station:DISL:DISL:1,2013-01-03T10:00:00Z,30.2513,-88.0778,1.92024,10.36,1111122 
DISL,ioos:station:DISL:DISL:1,2013-01-03T10:30:00Z,30.2513,-88.0778,1.9418808,10.44,1111122 
DISL,ioos:station:DISL:DISL:1,2013-01-03T11:00:00Z,30.2513,-88.0778,1.9062192,10.44,1111122 
DISL,ioos:station:DISL:DISL:1,2013-01-03T11:30:00Z,30.2513,-88.0778,1.8967705,10.45,1111122 
DISL,ioos:station:DISL:DISL:1,2013-01-03T12:00:00Z,30.2513,-88.0778,1.9007329,10.45,1111122 
DISL,ioos:station:DISL:DISL:1,2013-01-03T12:30:00Z,30.2513,-88.0778,1.8931128,10.44,1111122 
DISL,ioos:station:DISL:DISL:1,2013-01-03T13:00:00Z,30.2513,-88.0778,1.9031712,10.43,1111122 
DISL,ioos:station:DISL:DISL:1,2013-01-03T13:30:00Z,30.2513,-88.0778,1.8967705,10.45,1111122 
DISL,ioos:station:DISL:DISL:1,2013-01-03T14:00:00Z,30.2513,-88.0778,1.9196304,10.49,1111122 
DISL,ioos:station:DISL:DISL:1,2013-01-03T14:30:00Z,30.2513,-88.0778,1.8845785,10.51,1111122 
DISL,ioos:station:DISL:DISL:1,2013-01-03T15:00:00Z,30.2513,-88.0778,1.8571464,10.54,1111122 
DISL,ioos:station:DISL:DISL:1,2013-01-03T15:30:00Z,30.2513,-88.0778,1.8397727,10.55,1111122 
DISL,ioos:station:DISL:DISL:1,2013-01-03T16:00:00Z,30.2513,-88.0778,1.8720816,10.59,1111122 
DISL,ioos:station:DISL:DISL:1,2013-01-03T16:30:00Z,30.2513,-88.0778,1.8650712,10.64,1111122 
DISL,ioos:station:DISL:DISL:1,2013-01-03T17:00:00Z,30.2513,-88.0778,1.8568417,10.66,1111122 
DISL,ioos:station:DISL:DISL:1,2013-01-03T17:30:00Z,30.2513,-88.0778,1.8711672,10.7,1111122 
DISL,ioos:station:DISL:DISL:1,2013-01-03T18:00:00Z,30.2513,-88.0778,1.8720816,10.72,1111122 
DISL,ioos:station:DISL:DISL:1,2013-01-03T18:30:00Z,30.2513,-88.0778,1.8391632,10.73,1111122 
DISL,ioos:station:DISL:DISL:1,2013-01-03T19:00:00Z,30.2513,-88.0778,1.879092,10.73,1111122 
DISL,ioos:station:DISL:DISL:1,2013-01-03T19:30:00Z,30.2513,-88.0778,1.871472,10.79,1111122 
DISL,ioos:station:DISL:DISL:1,2013-01-03T20:00:00Z,30.2513,-88.0778,1.8778727,10.83,1111122 
DISL,ioos:station:DISL:DISL:1,2013-01-03T20:30:00Z,30.2513,-88.0778,1.8903697,10.87,1111122 
DISL,ioos:station:DISL:DISL:1,2013-01-03T21:00:00Z,30.2513,-88.0778,1.8992088,10.94,1111122 
DISL,ioos:station:DISL:DISL:1,2013-01-03T21:30:00Z,30.2513,-88.0778,1.9138392,10.97,1111122 
DISL,ioos:station:DISL:DISL:1,2013-01-03T22:00:00Z,30.2513,-88.0778,1.9467577,11.03,1111122 
DISL,ioos:station:DISL:DISL:1,2013-01-03T22:30:00Z,30.2513,-88.0778,1.905,11.09,1111122 
DISL,ioos:station:DISL:DISL:1,2013-01-03T23:00:00Z,30.2513,-88.0778,2.0150328,11.2,1111122 
DISL,ioos:station:DISL:DISL:1,2013-01-03T23:30:00Z,30.2513,-88.0778,2.0061936,11.14,1111122 
DISL,ioos:station:DISL:DISL:1,2013-01-04T00:00:00Z,30.2513,-88.0778,1.9854672,11.09,1111122 
DISL,ioos:station:DISL:DISL:1,2013-01-04T00:30:00Z,30.2513,-88.0778,1.9924777,11.23,1111122 
DISL,ioos:station:DISL:DISL:1,2013-01-04T01:00:00Z,30.2513,-88.0778,2.083308,11.17,1111122 
DISL,ioos:station:DISL:DISL:1,2013-01-04T01:30:00Z,30.2513,-88.0778,1.9936968,11.15,1111122 
DISL,ioos:station:DISL:DISL:1,2013-01-04T02:00:00Z,30.2513,-88.0778,2.01168,11.15,1111122 
DISL,ioos:station:DISL:DISL:1,2013-01-04T02:30:00Z,30.2513,-88.0778,1.987296,11.12,1111122 
DISL,ioos:station:DISL:DISL:1,2013-01-04T03:00:00Z,30.2513,-88.0778,2.0007071,11.07,1111122 
DISL,ioos:station:DISL:DISL:1,2013-01-04T03:30:00Z,30.2513,-88.0778,2.0726402,11.09,1111122 
DISL,ioos:station:DISL:DISL:1,2013-01-04T04:00:00Z,30.2513,-88.0778,1.9863816,10.82,1111122 
DISL,ioos:station:DISL:DISL:1,2013-01-04T04:30:00Z,30.2513,-88.0778,1.9940016,10.66,1111122 
DISL,ioos:station:DISL:DISL:1,2013-01-04T05:00:00Z,30.2513,-88.0778,2.0061936,10.68,1111122 
DISL,ioos:station:DISL:DISL:1,2013-01-04T05:30:00Z,30.2513,-88.0778,2.01168,10.64,1111122 
DISL,ioos:station:DISL:DISL:1,2013-01-04T06:00:00Z,30.2513,-88.0778,1.990344,10.72,1111122 
DISL,ioos:station:DISL:DISL:1,2013-01-04T06:30:00Z,30.2513,-88.0778,1.9683985,10.61,1111122 
DISL,ioos:station:DISL:DISL:1,2013-01-04T07:00:00Z,30.2513,-88.0778,1.8894552,10.66,1111122 
DISL,ioos:station:DISL:DISL:1,2013-01-04T07:30:00Z,30.2513,-88.0778,1.9781519,10.81,1111122 
DISL,ioos:station:DISL:DISL:1,2013-01-04T08:00:00Z,30.2513,-88.0778,2.0156424,10.79,1111122 
DISL,ioos:station:DISL:DISL:1,2013-01-04T08:30:00Z,30.2513,-88.0778,1.9662648,10.83,1111122 
DISL,ioos:station:DISL:DISL:1,2013-01-04T09:00:00Z,30.2513,-88.0778,1.9863816,10.78,1111122 
DISL,ioos:station:DISL:DISL:1,2013-01-04T09:30:00Z,30.2513,-88.0778,1.9632168,10.78,1111122 
DISL,ioos:station:DISL:DISL:1,2013-01-04T10:00:00Z,30.2513,-88.0778,1.9150584,10.75,1111122 
DISL,ioos:station:DISL:DISL:1,2013-01-04T10:30:00Z,30.2513,-88.0778,1.9851624,10.7,1111122 
DISL,ioos:station:DISL:DISL:1,2013-01-04T11:00:00Z,30.2513,-88.0778,1.9470624,10.67,1111122 
DISL,ioos:station:DISL:DISL:1,2013-01-04T11:30:00Z,30.2513,-88.0778,1.9824193,10.69,1111122 
DISL,ioos:station:DISL:DISL:1,2013-01-04T12:00:00Z,30.2513,-88.0778,1.9495008,10.67,1111122 
DISL,ioos:station:DISL:DISL:1,2013-01-04T12:30:00Z,30.2513,-88.0778,1.9275552,10.68,1111122 
DISL,ioos:station:DISL:DISL:1,2013-01-04T13:00:00Z,30.2513,-88.0778,1.9458432,10.67,1111122 
DISL,ioos:station:DISL:DISL:1,2013-01-04T13:30:00Z,30.2513,-88.0778,1.8867121,10.6,1111122 
DISL,ioos:station:DISL:DISL:1,2013-01-04T14:00:00Z,30.2513,-88.0778,1.9513296,10.69,1111122 
DISL,ioos:station:DISL:DISL:1,2013-01-04T14:30:00Z,30.2513,-88.0778,1.9513296,10.61,1111122 
DISL,ioos:station:DISL:DISL:1,2013-01-04T15:00:00Z,30.2513,-88.0778,1.8845785,10.67,1111122 
DISL,ioos:station:DISL:DISL:1,2013-01-04T15:30:00Z,30.2513,-88.0778,1.9187161,10.7,1111122 
DISL,ioos:station:DISL:DISL:1,2013-01-04T16:00:00Z,30.2513,-88.0778,1.8918935,10.71,1111122 
DISL,ioos:station:DISL:DISL:1,2013-01-04T16:30:00Z,30.2513,-88.0778,1.9363945,10.7,1111122 
DISL,ioos:station:DISL:DISL:1,2013-01-04T17:00:00Z,30.2513,-88.0778,1.9101816,10.68,1111122 
DISL,ioos:station:DISL:DISL:1,2013-01-04T17:30:00Z,30.2513,-88.0778,1.9333464,10.62,1111122 
DISL,ioos:station:DISL:DISL:1,2013-01-04T18:00:00Z,30.2513,-88.0778,1.9306033,10.68,1111122 
DISL,ioos:station:DISL:DISL:1,2013-01-04T18:30:00Z,30.2513,-88.0778,1.941576,10.63,1111122 
DISL,ioos:station:DISL:DISL:1,2013-01-04T19:00:00Z,30.2513,-88.0778,1.9080482,10.02,1111122 
DISL,ioos:station:DISL:DISL:1,2013-01-04T19:30:00Z,30.2513,-88.0778,1.9440143,9.71,1111122 
DISL,ioos:station:DISL:DISL:1,2013-01-04T20:00:00Z,30.2513,-88.0778,1.9366993,9.1,1111122 
DISL,ioos:station:DISL:DISL:1,2013-01-04T20:30:00Z,30.2513,-88.0778,1.9641311,9.33,1111122 
DISL,ioos:station:DISL:DISL:1,2013-01-04T21:00:00Z,30.2513,-88.0778,1.953768,8.69,1111122 
DISL,ioos:station:DISL:DISL:1,2013-01-04T21:30:00Z,30.2513,-88.0778,1.9717512,8.34,1111122 
DISL,ioos:station:DISL:DISL:1,2013-01-04T22:00:00Z,30.2513,-88.0778,1.997964,8.93,1111122 
DISL,ioos:station:DISL:DISL:1,2013-01-04T22:30:00Z,30.2513,-88.0778,2.007108,8.09,1111122 
DISL,ioos:station:DISL:DISL:1,2013-01-04T23:00:00Z,30.2513,-88.0778,1.9958304,8.97,1111122 
DISL,ioos:station:DISL:DISL:1,2013-01-04T23:30:00Z,30.2513,-88.0778,2.029663,9.96,1111122 
DISL,ioos:station:DISL:DISL:1,2013-01-05T00:00:00Z,30.2513,-88.0778,2.0232625,11.21,1111122 
DISL,ioos:station:DISL:DISL:1,2013-01-05T00:30:00Z,30.2513,-88.0778,2.0388072,11.22,1111122 
DISL,ioos:station:DISL:DISL:1,2013-01-05T01:00:00Z,30.2513,-88.0778,2.041855,11.51,1111122 
DISL,ioos:station:DISL:DISL:1,2013-01-05T01:30:00Z,30.2513,-88.0778,2.0430744,11.51,1111122 
DISL,ioos:station:DISL:DISL:1,2013-01-05T02:00:00Z,30.2513,-88.0778,2.0193,11.53,1111122 
DISL,ioos:station:DISL:DISL:1,2013-01-05T02:30:00Z,30.2513,-88.0778,2.033321,11.5,1111122 
DISL,ioos:station:DISL:DISL:1,2013-01-05T03:00:00Z,30.2513,-88.0778,2.013204,11.48,1111122 
DISL,ioos:station:DISL:DISL:1,2013-01-05T03:30:00Z,30.2513,-88.0778,2.0150328,11.42,1111122 
DISL,ioos:station:DISL:DISL:1,2013-01-05T04:00:00Z,30.2513,-88.0778,1.9915632,11.24,1111122 
DISL,ioos:station:DISL:DISL:1,2013-01-05T04:30:00Z,30.2513,-88.0778,1.9790665,10.96,1111122 
DISL,ioos:station:DISL:DISL:1,2013-01-05T05:00:00Z,30.2513,-88.0778,1.9720559,10.9,1111122 
DISL,ioos:station:DISL:DISL:1,2013-01-05T05:30:00Z,30.2513,-88.0778,1.9446241,10.84,1111122 
DISL,ioos:station:DISL:DISL:1,2013-01-05T06:00:00Z,30.2513,-88.0778,1.9473672,10.82,1111122 
DISL,ioos:station:DISL:DISL:1,2013-01-05T06:30:00Z,30.2513,-88.0778,1.9238975,10.73,1111122 
DISL,ioos:station:DISL:DISL:1,2013-01-05T07:00:00Z,30.2513,-88.0778,1.9650457,10.74,1111122 
DISL,ioos:station:DISL:DISL:1,2013-01-05T07:30:00Z,30.2513,-88.0778,1.8940272,10.75,1111122 
DISL,ioos:station:DISL:DISL:1,2013-01-05T08:00:00Z,30.2513,-88.0778,1.8992088,10.78,1111122 
DISL,ioos:station:DISL:DISL:1,2013-01-05T08:30:00Z,30.2513,-88.0778,1.8833592,10.79,1111122 
DISL,ioos:station:DISL:DISL:1,2013-01-05T09:00:00Z,30.2513,-88.0778,1.8921984,10.8,1111122 
DISL,ioos:station:DISL:DISL:1,2013-01-05T09:30:00Z,30.2513,-88.0778,1.8537935,10.81,1111122 
DISL,ioos:station:DISL:DISL:1,2013-01-05T10:00:00Z,30.2513,-88.0778,1.8611088,10.79,1111122 
DISL,ioos:station:DISL:DISL:1,2013-01-05T10:30:00Z,30.2513,-88.0778,1.8681192,10.79,1111122 
DISL,ioos:station:DISL:DISL:1,2013-01-05T11:00:00Z,30.2513,-88.0778,1.8711672,10.8,1111122 
DISL,ioos:station:DISL:DISL:1,2013-01-05T11:30:00Z,30.2513,-88.0778,1.8665953,10.81,1111122 
DISL,ioos:station:DISL:DISL:1,2013-01-05T12:00:00Z,30.2513,-88.0778,1.8745201,10.83,1111122 
DISL,ioos:station:DISL:DISL:1,2013-01-05T12:30:00Z,30.2513,-88.0778,1.8608041,10.84,1111122 
DISL,ioos:station:DISL:DISL:1,2013-01-05T13:00:00Z,30.2513,-88.0778,1.865376,10.82,1111122 
DISL,ioos:station:DISL:DISL:1,2013-01-05T13:30:00Z,30.2513,-88.0778,1.8376392,10.81,1111122 
DISL,ioos:station:DISL:DISL:1,2013-01-05T14:00:00Z,30.2513,-88.0778,1.8540984,10.83,1111122 
DISL,ioos:station:DISL:DISL:1,2013-01-05T14:30:00Z,30.2513,-88.0778,1.8873216,10.82,1111122 
DISL,ioos:station:DISL:DISL:1,2013-01-05T15:00:00Z,30.2513,-88.0778,1.8818351,10.85,1111122 
DISL,ioos:station:DISL:DISL:1,2013-01-05T15:30:00Z,30.2513,-88.0778,1.909572,10.86,1111122 
DISL,ioos:station:DISL:DISL:1,2013-01-05T16:00:00Z,30.2513,-88.0778,1.8992088,10.89,1111122 
DISL,ioos:station:DISL:DISL:1,2013-01-05T16:30:00Z,30.2513,-88.0778,1.8946369,10.86,1111122 
DISL,ioos:station:DISL:DISL:1,2013-01-05T17:00:00Z,30.2513,-88.0778,1.8949416,10.77,1111122 
DISL,ioos:station:DISL:DISL:1,2013-01-05T17:30:00Z,30.2513,-88.0778,1.915668,10.41,1111122 
DISL,ioos:station:DISL:DISL:1,2013-01-05T18:00:00Z,30.2513,-88.0778,1.9242024,10.09,1111122 
DISL,ioos:station:DISL:DISL:1,2013-01-05T18:30:00Z,30.2513,-88.0778,1.9226785,9.82,1111122 
DISL,ioos:station:DISL:DISL:1,2013-01-05T19:00:00Z,30.2513,-88.0778,1.8949416,9.21,1111122 
DISL,ioos:station:DISL:DISL:1,2013-01-05T19:30:00Z,30.2513,-88.0778,1.9650457,8.02,1111122 
DISL,ioos:station:DISL:DISL:1,2013-01-05T20:00:00Z,30.2513,-88.0778,1.961388,7.45,1111122 
DISL,ioos:station:DISL:DISL:1,2013-01-05T20:30:00Z,30.2513,-88.0778,1.9726657,7.3,1111122 
DISL,ioos:station:DISL:DISL:1,2013-01-05T21:00:00Z,30.2513,-88.0778,1.9769329,8.08,1111122 
DISL,ioos:station:DISL:DISL:1,2013-01-05T21:30:00Z,30.2513,-88.0778,1.987296,7.92,1111122 
DISL,ioos:station:DISL:DISL:1,2013-01-05T22:00:00Z,30.2513,-88.0778,2.0052793,8.63,1111122 
DISL,ioos:station:DISL:DISL:1,2013-01-05T22:30:00Z,30.2513,-88.0778,2.0110705,8.47,1111122 
DISL,ioos:station:DISL:DISL:1,2013-01-05T23:00:00Z,30.2513,-88.0778,2.0625818,10.91,1111122 
DISL,ioos:station:DISL:DISL:1,2013-01-05T23:30:00Z,30.2513,-88.0778,2.0555713,9.96,1111122 
DISL,ioos:station:DISL:DISL:1,2013-01-06T00:00:00Z,30.2513,-88.0778,2.0766025,10.82,1111122 
DISL,ioos:station:DISL:DISL:1,2013-01-06T00:30:00Z,30.2513,-88.0778,2.0769072,11.06,1111122 
DISL,ioos:station:DISL:DISL:1,2013-01-06T01:00:00Z,30.2513,-88.0778,2.0653248,11.2,1111122 
DISL,ioos:station:DISL:DISL:1,2013-01-06T01:30:00Z,30.2513,-88.0778,2.0567904,11.14,1111122 
DISL,ioos:station:DISL:DISL:1,2013-01-06T02:00:00Z,30.2513,-88.0778,2.0442936,11.07,1111122 
DISL,ioos:station:DISL:DISL:1,2013-01-06T02:30:00Z,30.2513,-88.0778,2.066544,11.06,1111122 
DISL,ioos:station:DISL:DISL:1,2013-01-06T03:00:00Z,30.2513,-88.0778,2.0336256,11.03,1111122 
DISL,ioos:station:DISL:DISL:1,2013-01-06T03:30:00Z,30.2513,-88.0778,2.0104609,10.94,1111122 
DISL,ioos:station:DISL:DISL:1,2013-01-06T04:00:00Z,30.2513,-88.0778,2.0019264,10.87,1111122 
DISL,ioos:station:DISL:DISL:1,2013-01-06T04:30:00Z,30.2513,-88.0778,1.9839432,10.8,1111122 
DISL,ioos:station:DISL:DISL:1,2013-01-06T05:00:00Z,30.2513,-88.0778,1.9555968,10.78,1111122 
DISL,ioos:station:DISL:DISL:1,2013-01-06T05:30:00Z,30.2513,-88.0778,1.9446241,10.79,1111122 
DISL,ioos:station:DISL:DISL:1,2013-01-06T06:00:00Z,30.2513,-88.0778,1.8961608,10.76,1111122 
DISL,ioos:station:DISL:DISL:1,2013-01-06T06:30:00Z,30.2513,-88.0778,1.9016472,10.77,1111122 
DISL,ioos:station:DISL:DISL:1,2013-01-06T07:00:00Z,30.2513,-88.0778,1.9040856,10.77,1111122 
DISL,ioos:station:DISL:DISL:1,2013-01-06T07:30:00Z,30.2513,-88.0778,1.8595848,10.78,1111122 
DISL,ioos:station:DISL:DISL:1,2013-01-06T08:00:00Z,30.2513,-88.0778,1.83642,10.76,1111122 
DISL,ioos:station:DISL:DISL:1,2013-01-06T08:30:00Z,30.2513,-88.0778,1.876044,10.77,1111122 
DISL,ioos:station:DISL:DISL:1,2013-01-06T09:00:00Z,30.2513,-88.0778,1.8373344,10.74,1111122 
DISL,ioos:station:DISL:DISL:1,2013-01-06T09:30:00Z,30.2513,-88.0778,1.8254472,10.76,1111122 
DISL,ioos:station:DISL:DISL:1,2013-01-06T10:00:00Z,30.2513,-88.0778,1.8614136,10.77,1111122 
DISL,ioos:station:DISL:DISL:1,2013-01-06T10:30:00Z,30.2513,-88.0778,1.8324577,10.78,1111122 
DISL,ioos:station:DISL:DISL:1,2013-01-06T11:00:00Z,30.2513,-88.0778,1.8507457,10.77,1111122 
DISL,ioos:station:DISL:DISL:1,2013-01-06T11:30:00Z,30.2513,-88.0778,1.8528792,10.78,1111122 
DISL,ioos:station:DISL:DISL:1,2013-01-06T12:00:00Z,30.2513,-88.0778,1.8163033,10.75,1111122 
DISL,ioos:station:DISL:DISL:1,2013-01-06T12:30:00Z,30.2513,-88.0778,1.8291048,10.72,1111122 
DISL,ioos:station:DISL:DISL:1,2013-01-06T13:00:00Z,30.2513,-88.0778,1.8147792,10.72,1111122 
DISL,ioos:station:DISL:DISL:1,2013-01-06T13:30:00Z,30.2513,-88.0778,1.8464785,10.72,1111122 
DISL,ioos:station:DISL:DISL:1,2013-01-06T14:00:00Z,30.2513,-88.0778,1.8690336,10.71,1111122 
DISL,ioos:station:DISL:DISL:1,2013-01-06T14:30:00Z,30.2513,-88.0778,1.9254216,10.77,1111122 
DISL,ioos:station:DISL:DISL:1,2013-01-06T15:00:00Z,30.2513,-88.0778,1.9184113,10.83,1111122 
DISL,ioos:station:DISL:DISL:1,2013-01-06T15:30:00Z,30.2513,-88.0778,1.8784825,10.89,1111122 